ENT8GJ EPWA-LGRP

Flight info

Callsign ENT8GJ
Flight time N/A
Altitude 37000
Route EVINA M985 KOTEK DCT KENIN DCT KARIL DCT LOMOS DCT BLO N127 NIKTI DCT MES UN139 LURUS UL995 USINI L995 CODIC
Aircraft B738/M-SDFGHIJ1RWXY/EB1

Departure

Time N/A
Airport Warsaw Chopin Airport (EPWA)

Arrival

Time 2026-05-01 08:27
Airport Rhodes International Airport "Diagoras" (LGRP)
Time Latitude Longitude Altitude Speed Heading
2026-05-01 07:23 41.55563 24.11973 37269 ft 455 kts 171°
2026-05-01 07:24 41.46622 24.16571 37260 ft 461 kts 160°
2026-05-01 07:24 41.40740 24.20018 37258 ft 460 kts 161°
2026-05-01 07:25 41.34902 24.23381 37248 ft 460 kts 161°
2026-05-01 07:25 41.29016 24.26730 37240 ft 460 kts 161°
2026-05-01 07:26 41.23128 24.30058 37235 ft 460 kts 162°
2026-05-01 07:26 41.17239 24.33382 37231 ft 459 kts 162°
2026-05-01 07:27 41.11356 24.36693 37225 ft 459 kts 162°
2026-05-01 07:27 41.05473 24.39999 37218 ft 459 kts 162°
2026-05-01 07:28 40.99598 24.43295 37224 ft 459 kts 162°
2026-05-01 07:28 40.93718 24.46587 37216 ft 458 kts 162°
2026-05-01 07:29 40.87882 24.49849 37205 ft 458 kts 162°
2026-05-01 07:29 40.82006 24.53128 37214 ft 458 kts 163°
2026-05-01 07:30 40.76132 24.56398 37212 ft 458 kts 163°
2026-05-01 07:30 40.70249 24.59666 37210 ft 458 kts 163°
2026-05-01 07:31 40.64376 24.62924 37206 ft 458 kts 163°
2026-05-01 07:32 40.49712 24.71028 37214 ft 459 kts 163°
2026-05-01 07:33 40.41852 24.75356 37202 ft 460 kts 163°
2026-05-01 07:33 40.32989 24.80227 37204 ft 461 kts 163°
2026-05-01 07:34 40.24098 24.85097 37197 ft 461 kts 163°
2026-05-01 07:35 40.18205 24.88314 37191 ft 461 kts 163°
2026-05-01 07:35 40.12279 24.91547 37194 ft 461 kts 163°
2026-05-01 07:36 40.06357 24.94771 37196 ft 460 kts 163°
2026-05-01 07:36 40.00452 24.97981 37180 ft 460 kts 163°
2026-05-01 07:37 39.91598 25.02780 37182 ft 459 kts 164°
2026-05-01 07:37 39.85702 25.05969 37193 ft 458 kts 164°
2026-05-01 07:38 39.79849 25.09125 37177 ft 458 kts 164°
2026-05-01 07:39 39.71016 25.13881 37182 ft 458 kts 164°
2026-05-01 07:39 39.62163 25.18637 37192 ft 459 kts 164°
2026-05-01 07:40 39.56258 25.21800 37180 ft 460 kts 164°
2026-05-01 07:40 39.50338 25.24965 37185 ft 461 kts 164°
2026-05-01 07:41 39.44413 25.28128 37191 ft 461 kts 164°
2026-05-01 07:42 39.35489 25.32882 37180 ft 462 kts 164°
2026-05-01 07:42 39.29567 25.36027 37174 ft 463 kts 164°
2026-05-01 07:43 39.23606 25.39188 37165 ft 463 kts 164°
2026-05-01 07:43 39.14657 25.43924 37155 ft 463 kts 164°
2026-05-01 07:44 39.02701 25.50230 37138 ft 464 kts 164°
2026-05-01 07:45 38.96721 25.53375 37115 ft 464 kts 165°
2026-05-01 07:45 38.90747 25.56511 37107 ft 464 kts 164°
2026-05-01 07:46 38.84803 25.59628 37096 ft 464 kts 165°
2026-05-01 07:47 38.75837 25.64320 37100 ft 464 kts 165°
2026-05-01 07:47 38.69859 25.67436 37100 ft 464 kts 165°
2026-05-01 07:48 38.60877 25.72110 37100 ft 465 kts 165°
2026-05-01 07:48 38.54908 25.75209 37081 ft 466 kts 165°
2026-05-01 07:49 38.45875 25.79890 37082 ft 467 kts 165°
2026-05-01 07:50 38.39848 25.83007 37086 ft 468 kts 165°
2026-05-01 07:50 38.30777 25.87687 37080 ft 469 kts 165°
2026-05-01 07:51 38.24758 25.90786 37077 ft 470 kts 165°
2026-05-01 07:52 38.15570 25.95033 37072 ft 468 kts 168°
2026-05-01 07:52 38.09431 25.97770 37076 ft 468 kts 167°
2026-05-01 07:53 38.00225 26.01936 37064 ft 468 kts 167°
2026-05-01 07:53 37.94090 26.04723 37067 ft 468 kts 167°
2026-05-01 07:55 37.78799 26.11642 37057 ft 467 kts 167°
2026-05-01 07:56 37.63506 26.18523 37031 ft 466 kts 167°
2026-05-01 07:57 37.54376 26.22619 37026 ft 466 kts 167°
2026-05-01 07:58 37.42128 26.28093 36448 ft 473 kts 167°
2026-05-01 07:58 37.35960 26.30847 35493 ft 468 kts 167°
2026-05-01 07:59 37.29865 26.33568 34677 ft 461 kts 168°
2026-05-01 07:59 37.23867 26.36233 33843 ft 455 kts 168°
2026-05-01 08:00 37.12082 26.41459 32171 ft 443 kts 167°
2026-05-01 08:01 37.03472 26.45273 30966 ft 435 kts 167°
2026-05-01 08:01 37.00630 26.46529 30572 ft 432 kts 167°
2026-05-01 08:01 36.97807 26.47776 30187 ft 429 kts 167°
2026-05-01 08:02 36.92226 26.50278 29400 ft 425 kts 162°
2026-05-01 08:02 36.89698 26.52258 28971 ft 435 kts 143°
2026-05-01 08:03 36.86387 26.58551 28242 ft 438 kts 114°
2026-05-01 08:03 36.85276 26.62083 27839 ft 435 kts 113°
2026-05-01 08:03 36.83001 26.68977 27043 ft 429 kts 115°
2026-05-01 08:04 36.80655 26.75778 26257 ft 424 kts 115°
2026-05-01 08:04 36.78331 26.82499 25483 ft 418 kts 115°
2026-05-01 08:05 36.76042 26.89118 24717 ft 413 kts 115°
2026-05-01 08:05 36.74908 26.92395 24334 ft 410 kts 115°
2026-05-01 08:05 36.73781 26.95648 23954 ft 407 kts 115°
2026-05-01 08:06 36.71547 27.02087 23200 ft 401 kts 115°
2026-05-01 08:06 36.69343 27.08430 22452 ft 396 kts 115°
2026-05-01 08:07 36.67167 27.14676 21728 ft 390 kts 115°
2026-05-01 08:07 36.65032 27.20777 21032 ft 384 kts 116°
2026-05-01 08:08 36.63966 27.23817 20666 ft 382 kts 116°
2026-05-01 08:08 36.61852 27.29840 19934 ft 377 kts 116°
2026-05-01 08:09 36.59760 27.35795 19211 ft 373 kts 116°
2026-05-01 08:09 36.58725 27.38736 18852 ft 370 kts 116°
2026-05-01 08:09 36.57694 27.41661 18494 ft 368 kts 116°
2026-05-01 08:10 36.55664 27.47417 17790 ft 363 kts 116°
2026-05-01 08:10 36.53630 27.53170 17077 ft 359 kts 116°
2026-05-01 08:11 36.51644 27.58782 16383 ft 355 kts 115°
2026-05-01 08:11 36.49665 27.64360 15691 ft 351 kts 115°
2026-05-01 08:12 36.47706 27.69877 15003 ft 347 kts 115°
2026-05-01 08:12 36.46733 27.72609 14658 ft 345 kts 115°
2026-05-01 08:12 36.44924 27.78060 14125 ft 336 kts 112°
2026-05-01 08:13 36.44075 27.80752 13870 ft 333 kts 112°
2026-05-01 08:13 36.43233 27.83424 13623 ft 333 kts 112°
2026-05-01 08:13 36.41531 27.88777 13129 ft 333 kts 112°
2026-05-01 08:14 36.40689 27.91413 12891 ft 333 kts 112°
2026-05-01 08:14 36.39835 27.94076 12644 ft 332 kts 112°
2026-05-01 08:14 36.38980 27.96740 12386 ft 332 kts 112°
2026-05-01 08:14 36.38124 27.99398 12137 ft 331 kts 112°
2026-05-01 08:15 36.37271 28.02048 11894 ft 331 kts 112°
2026-05-01 08:15 36.35573 28.07311 11389 ft 325 kts 112°
2026-05-01 08:15 36.34740 28.09893 11139 ft 321 kts 112°
2026-05-01 08:16 36.33913 28.12451 10878 ft 317 kts 112°
2026-05-01 08:16 36.33096 28.14979 10631 ft 314 kts 112°
2026-05-01 08:16 36.32287 28.17479 10336 ft 312 kts 112°
2026-05-01 08:16 36.31487 28.19950 10151 ft 306 kts 112°
2026-05-01 08:17 36.30701 28.22374 9943 ft 301 kts 112°
2026-05-01 08:17 36.29917 28.24786 9555 ft 303 kts 112°
2026-05-01 08:17 36.29285 28.27261 9034 ft 302 kts 95°
2026-05-01 08:17 36.29292 28.29844 8571 ft 298 kts 87°
2026-05-01 08:18 36.29380 28.32404 8070 ft 297 kts 87°
2026-05-01 08:18 36.30156 28.37363 7073 ft 292 kts 71°
2026-05-01 08:19 36.31445 28.42118 6072 ft 289 kts 70°
2026-05-01 08:19 36.32091 28.44466 5576 ft 288 kts 70°
2026-05-01 08:19 36.32771 28.46792 5061 ft 286 kts 62°
2026-05-01 08:19 36.34081 28.48563 4589 ft 278 kts 26°
2026-05-01 08:20 36.35874 28.49123 4394 ft 260 kts 356°
2026-05-01 08:20 36.37561 28.48625 4379 ft 244 kts 332°
2026-05-01 08:20 36.38926 28.47407 4299 ft 242 kts 311°
2026-05-01 08:20 36.39927 28.45736 4244 ft 242 kts 302°
2026-05-01 08:21 36.40821 28.43969 4170 ft 242 kts 301°
2026-05-01 08:21 36.41704 28.42183 4097 ft 243 kts 301°
2026-05-01 08:21 36.42593 28.40399 4024 ft 243 kts 301°
2026-05-01 08:21 36.43498 28.38604 3908 ft 246 kts 302°
2026-05-01 08:22 36.44405 28.36819 3747 ft 242 kts 302°
2026-05-01 08:22 36.45285 28.35093 3582 ft 237 kts 302°
2026-05-01 08:22 36.45873 28.33941 3507 ft 229 kts 302°
2026-05-01 08:22 36.46610 28.32245 3328 ft 222 kts 283°
2026-05-01 08:23 36.46450 28.29754 3169 ft 220 kts 258°
2026-05-01 08:23 36.46105 28.27931 2932 ft 214 kts 256°
2026-05-01 08:23 36.45676 28.26191 2671 ft 207 kts 252°
2026-05-01 08:23 36.45201 28.24548 2392 ft 197 kts 251°
2026-05-01 08:24 36.44884 28.23480 2213 ft 193 kts 251°
2026-05-01 08:24 36.44296 28.21477 1890 ft 180 kts 251°
2026-05-01 08:24 36.44010 28.20509 1737 ft 172 kts 251°
2026-05-01 08:24 36.43618 28.19160 1499 ft 160 kts 251°
2026-05-01 08:25 36.43251 28.17907 1316 ft 155 kts 251°
2026-05-01 08:25 36.42881 28.16661 1133 ft 153 kts 251°
2026-05-01 08:25 36.42531 28.15452 897 ft 150 kts 251°
2026-05-01 08:25 36.42173 28.14218 728 ft 150 kts 251°
2026-05-01 08:26 36.41823 28.13017 520 ft 149 kts 250°
2026-05-01 08:26 36.41466 28.11808 307 ft 149 kts 251°
2026-05-01 08:26 36.41115 28.10602 99 ft 148 kts 250°
2026-05-01 08:26 36.40768 28.09406 30 ft 136 kts 249°
2026-05-01 08:27 36.40496 28.08487 24 ft 93 kts 250°
2026-05-01 08:27 36.40333 28.08008 27 ft 34 kts 222°
2026-05-01 08:27 36.40197 28.07870 28 ft 16 kts 220°
2026-05-01 08:27 36.40148 28.07896 28 ft 11 kts 90°
2026-05-01 08:28 36.40166 28.07984 29 ft 10 kts 68°
2026-05-01 08:28 36.40190 28.08067 26 ft 10 kts 71°
2026-05-01 08:28 36.40215 28.08147 26 ft 10 kts 70°
2026-05-01 08:28 36.40238 28.08228 26 ft 10 kts 70°
2026-05-01 08:29 36.40264 28.08317 27 ft 12 kts 70°
2026-05-01 08:29 36.40294 28.08418 27 ft 13 kts 69°
2026-05-01 08:29 36.40326 28.08528 27 ft 14 kts 70°
2026-05-01 08:29 36.40358 28.08635 27 ft 13 kts 70°
2026-05-01 08:30 36.40388 28.08739 28 ft 13 kts 70°
2026-05-01 08:30 36.40401 28.08845 28 ft 12 kts 91°
2026-05-01 08:30 36.40397 28.08915 28 ft 5 kts 95°
2026-05-01 08:30 36.40386 28.08948 28 ft 4 kts 143°
2026-05-01 08:31 36.40361 28.08961 28 ft 4 kts 160°
2026-05-01 08:31 36.40341 28.08970 28 ft 1 kts 160°
2026-05-01 08:31 36.40337 28.08972 28 ft 1 kts 160°
2026-05-01 08:31 36.40326 28.08977 28 ft 1 kts 160°